| time (UTC) | temp F | wind direction | speed knots | gust knots | rain 1hr in | rain 24hr in | rain mn in | humidity % | barometer mb |
| 20260508163303 | 73 | 150 | 6.1 | 0.0 | 0.00 | 0.00 | 0.00 | 57 | 1012.0 |
| 20260508161802 | 77 | 140 | 6.1 | 0.0 | 0.00 | 0.00 | 0.00 | 44 | 1013.0 |
| 20260508160302 | 77 | 140 | 6.1 | 0.0 | 0.00 | 0.00 | 0.00 | 44 | 1013.0 |
| 20260508154802 | 77 | 190 | 7.0 | 0.0 | 0.00 | 0.00 | 0.00 | 44 | 1013.0 |
| 20260508153302 | 77 | 190 | 7.0 | 0.0 | 0.00 | 0.00 | 0.00 | 44 | 1013.0 |
| 20260508151802 | 79 | 150 | 8.7 | 0.0 | 0.00 | 0.00 | 0.00 | 45 | 1013.0 |
| 20260508150302 | 79 | 150 | 8.7 | 0.0 | 0.00 | 0.00 | 0.00 | 45 | 1013.0 |
| 20260508144803 | 81 | 100 | 2.6 | 0.0 | 0.00 | 0.00 | 0.00 | 34 | 1013.0 |
| 20260508143302 | 81 | 100 | 2.6 | 0.0 | 0.00 | 0.00 | 0.00 | 34 | 1013.0 |
| 20260508141802 | 79 | 80 | 2.6 | 0.0 | 0.00 | 0.00 | 0.00 | 42 | 1013.0 |
| 20260508140302 | 79 | 80 | 2.6 | 0.0 | 0.00 | 0.00 | 0.00 | 42 | 1013.0 |
| 20260508134915 | 81 | 70 | 5.2 | 0.0 | 0.00 | 0.00 | 0.00 | 37 | 1013.0 |
| 20260508133301 | 81 | 70 | 5.2 | 0.0 | 0.00 | 0.00 | 0.00 | 37 | 1013.0 |
| 20260508131802 | 79 | 2.6 | 0.0 | 0.00 | 0.00 | 0.00 | 39 | 1014.0 | |
| 20260508130303 | 79 | 2.6 | 0.0 | 0.00 | 0.00 | 0.00 | 39 | 1014.0 | |
| 20260508124801 | 79 | 220 | 4.3 | 0.0 | 0.00 | 0.00 | 0.00 | 39 | 1014.0 |
| 20260508123302 | 79 | 220 | 4.3 | 0.0 | 0.00 | 0.00 | 0.00 | 39 | 1014.0 |
| 20260508121810 | 81 | 1.7 | 0.0 | 0.00 | 0.00 | 0.00 | 39 | 1014.0 | |
| 20260508120301 | 81 | 1.7 | 0.0 | 0.00 | 0.00 | 0.00 | 39 | 1014.0 | |
| 20260508114802 | 77 | 1.7 | 0.0 | 0.00 | 0.00 | 0.00 | 42 | 1014.0 | |
| 20260508113302 | 77 | 1.7 | 0.0 | 0.00 | 0.00 | 0.00 | 42 | 1014.0 | |
| 20260508111802 | 75 | 290 | 4.3 | 0.0 | 0.00 | 0.00 | 0.00 | 50 | 1015.0 |
| 20260508110302 | 75 | 290 | 4.3 | 0.0 | 0.00 | 0.00 | 0.00 | 50 | 1015.0 |
| 20260508104804 | 77 | 5.2 | 0.0 | 0.00 | 0.00 | 0.00 | 47 | 1015.0 | |
| 20260508103314 | 77 | 5.2 | 0.0 | 0.00 | 0.00 | 0.00 | 51 | 1015.0 | |
| 20260508101802 | 77 | 5.2 | 0.0 | 0.00 | 0.00 | 0.00 | 51 | 1015.0 | |
| 20260508100302 | 77 | 5.2 | 0.0 | 0.00 | 0.00 | 0.00 | 51 | 1015.0 | |
| 20260508094802 | 77 | 4.3 | 0.0 | 0.00 | 0.00 | 0.00 | 44 | 1015.0 | |
| 20260508093302 | 77 | 4.3 | 0.0 | 0.00 | 0.00 | 0.00 | 44 | 1015.0 | |
| 20260508091801 | 75 | 1.7 | 0.0 | 0.00 | 0.00 | 0.00 | 50 | 1016.0 | |
| 20260508090302 | 75 | 1.7 | 0.0 | 0.00 | 0.00 | 0.00 | 50 | 1016.0 | |
| 20260508084801 | 73 | 330 | 2.6 | 0.0 | 0.00 | 0.00 | 0.00 | 61 | 1016.0 |
| 20260508083302 | 73 | 330 | 2.6 | 0.0 | 0.00 | 0.00 | 0.00 | 61 | 1016.0 |
| 20260508081802 | 70 | 2.6 | 0.0 | 0.00 | 0.00 | 0.00 | 64 | 1016.0 | |
| 20260508080301 | 70 | 2.6 | 0.0 | 0.00 | 0.00 | 0.00 | 64 | 1016.0 | |
| 20260508074801 | 66 | 0.9 | 0.0 | 0.00 | 0.00 | 0.00 | 68 | 1016.0 | |
| 20260508073302 | 66 | 0.9 | 0.0 | 0.00 | 0.00 | 0.00 | 68 | 1016.0 | |
| 20260508071802 | 64 | 70 | 2.6 | 0.0 | 0.00 | 0.00 | 0.00 | 78 | 1016.0 |
| 20260508070302 | 64 | 70 | 2.6 | 0.0 | 0.00 | 0.00 | 0.00 | 78 | 1016.0 |
| 20260508064803 | 63 | 60 | 2.6 | 0.0 | 0.00 | 0.00 | 0.00 | 77 | 1016.0 |
| 20260508063302 | 63 | 60 | 2.6 | 0.0 | 0.00 | 0.00 | 0.00 | 77 | 1016.0 |
| 20260508061802 | 61 | 0 | 0.0 | 0.0 | 0.00 | 0.00 | 0.00 | 83 | 1016.0 |
| 20260508060302 | 61 | 0 | 0.0 | 0.0 | 0.00 | 0.00 | 0.00 | 83 | 1016.0 |
| 20260508054803 | 59 | 0.9 | 0.0 | 0.00 | 0.00 | 0.00 | 82 | 1016.0 | |
| 20260508053302 | 59 | 0.9 | 0.0 | 0.00 | 0.00 | 0.00 | 82 | 1016.0 | |
| 20260508051803 | 57 | 310 | 2.6 | 0.0 | 0.00 | 0.00 | 0.00 | 88 | 1016.0 |
| 20260508050302 | 57 | 310 | 2.6 | 0.0 | 0.00 | 0.00 | 0.00 | 88 | 1016.0 |
| 20260508044802 | 59 | 0.9 | 0.0 | 0.00 | 0.00 | 0.00 | 77 | 1016.0 | |
| 20260508043301 | 59 | 0.9 | 0.0 | 0.00 | 0.00 | 0.00 | 77 | 1016.0 | |
| 20260508041803 | 55 | 80 | 2.6 | 0.0 | 0.00 | 0.00 | 0.00 | 88 | 1015.0 |
| 20260508040302 | 55 | 80 | 2.6 | 0.0 | 0.00 | 0.00 | 0.00 | 88 | 1015.0 |
| 20260508034802 | 55 | 70 | 2.6 | 0.0 | 0.00 | 0.00 | 0.00 | 88 | 1015.0 |
| 20260508033302 | 55 | 70 | 2.6 | 0.0 | 0.00 | 0.00 | 0.00 | 88 | 1015.0 |
| 20260508031802 | 55 | 100 | 4.3 | 0.0 | 0.00 | 0.00 | 0.00 | 88 | 1015.0 |
| 20260508030302 | 55 | 100 | 4.3 | 0.0 | 0.00 | 0.00 | 0.00 | 88 | 1015.0 |
| 20260508024802 | 55 | 70 | 1.7 | 0.0 | 0.00 | 0.00 | 0.00 | 94 | 1015.0 |
| 20260508023302 | 55 | 70 | 1.7 | 0.0 | 0.00 | 0.00 | 0.00 | 94 | 1015.0 |
| 20260508021802 | 55 | 90 | 4.3 | 0.0 | 0.00 | 0.00 | 0.00 | 88 | 1015.0 |
| 20260508020302 | 55 | 90 | 4.3 | 0.0 | 0.00 | 0.00 | 0.00 | 88 | 1015.0 |
| 20260508014802 | 55 | 60 | 2.6 | 0.0 | 0.00 | 0.00 | 0.00 | 88 | 1015.0 |
| 20260508013302 | 55 | 60 | 2.6 | 0.0 | 0.00 | 0.00 | 0.00 | 88 | 1015.0 |
| 20260508011802 | 55 | 60 | 4.3 | 0.0 | 0.00 | 0.00 | 0.00 | 88 | 1015.0 |
| 20260508010302 | 55 | 60 | 4.3 | 0.0 | 0.00 | 0.00 | 0.00 | 88 | 1015.0 |
| 20260508004802 | 57 | 60 | 5.2 | 0.0 | 0.00 | 0.00 | 0.00 | 88 | 1015.0 |
| 20260508003302 | 57 | 60 | 5.2 | 0.0 | 0.00 | 0.00 | 0.00 | 88 | 1015.0 |
| 20260508001801 | 57 | 40 | 6.1 | 0.0 | 0.00 | 0.00 | 0.00 | 88 | 1015.0 |
| 20260508000304 | 57 | 40 | 6.1 | 0.0 | 0.00 | 0.00 | 0.00 | 88 | 1015.0 |
| 20260507234803 | 59 | 40 | 7.0 | 0.0 | 0.00 | 0.00 | 0.00 | 82 | 1015.0 |
| 20260507233302 | 59 | 40 | 7.0 | 0.0 | 0.00 | 0.00 | 0.00 | 82 | 1015.0 |
| 20260507231802 | 59 | 60 | 4.3 | 0.0 | 0.00 | 0.00 | 0.00 | 82 | 1015.0 |
| 20260507230302 | 59 | 60 | 4.3 | 0.0 | 0.00 | 0.00 | 0.00 | 82 | 1015.0 |
| 20260507224802 | 61 | 60 | 4.3 | 0.0 | 0.00 | 0.00 | 0.00 | 83 | 1015.0 |
| 20260507223416 | 61 | 60 | 4.3 | 0.0 | 0.00 | 0.00 | 0.00 | 83 | |
| 20260507221802 | 63 | 20 | 6.1 | 0.0 | 0.00 | 0.00 | 0.00 | 77 | 1015.0 |
| 20260507220301 | 63 | 20 | 6.1 | 0.0 | 0.00 | 0.00 | 0.00 | 77 | 1015.0 |
| 20260507214802 | 63 | 310 | 4.3 | 0.0 | 0.00 | 0.00 | 0.00 | 83 | 1015.0 |
| 20260507213303 | 63 | 310 | 4.3 | 0.0 | 0.00 | 0.00 | 0.00 | 83 | 1015.0 |
| 20260507211802 | 63 | 0.9 | 0.0 | 0.00 | 0.00 | 0.00 | 83 | 1015.0 | |
| 20260507210302 | 63 | 0.9 | 0.0 | 0.00 | 0.00 | 0.00 | 83 | 1015.0 | |
| 20260507204802 | 63 | 110 | 2.6 | 0.0 | 0.00 | 0.00 | 0.00 | 83 | 1015.0 |
| 20260507203302 | 63 | 110 | 2.6 | 0.0 | 0.00 | 0.00 | 0.00 | 83 | 1015.0 |
| 20260507201802 | 64 | 90 | 2.6 | 0.0 | 0.00 | 0.00 | 0.00 | 78 | 1015.0 |
| 20260507200302 | 64 | 90 | 2.6 | 0.0 | 0.00 | 0.00 | 0.00 | 78 | 1015.0 |
| 20260507194808 | 64 | 0 | 0.0 | 0.0 | 0.00 | 0.00 | 0.00 | 73 | 1015.0 |
| 20260507193302 | 64 | 0 | 0.0 | 0.0 | 0.00 | 0.00 | 0.00 | 73 | 1015.0 |
| 20260507191802 | 64 | 80 | 5.2 | 0.0 | 0.00 | 0.00 | 0.00 | 78 | 1015.0 |
| 20260507190303 | 64 | 80 | 5.2 | 0.0 | 0.00 | 0.00 | 0.00 | 78 | 1015.0 |
| 20260507184804 | 64 | 100 | 5.2 | 0.0 | 0.00 | 0.00 | 0.00 | 78 | 1015.0 |
| 20260507183302 | 64 | 100 | 5.2 | 0.0 | 0.00 | 0.00 | 0.00 | 78 | 1015.0 |
| 20260507181802 | 68 | 80 | 7.8 | 0.0 | 0.00 | 0.00 | 0.00 | 64 | 1014.0 |
| 20260507180302 | 68 | 80 | 7.8 | 0.0 | 0.00 | 0.00 | 0.00 | 64 | 1014.0 |
| 20260507174801 | 68 | 100 | 4.3 | 0.0 | 0.00 | 0.00 | 0.00 | 56 | 1014.0 |
| 20260507173302 | 68 | 100 | 4.3 | 0.0 | 0.00 | 0.00 | 0.00 | 56 | 1014.0 |
| 20260507171803 | 70 | 100 | 4.3 | 0.0 | 0.00 | 0.00 | 0.00 | 57 | 1014.0 |
| 20260507170302 | 70 | 100 | 4.3 | 0.0 | 0.00 | 0.00 | 0.00 | 57 | 1014.0 |
| 20260507164802 | 73 | 80 | 4.3 | 0.0 | 0.00 | 0.00 | 0.00 | 47 | 1014.0 |